TimeMDT,TemperatureF,Dew PointF,Humidity,Sea Level PressureIn,VisibilityMPH,Wind Direction,Wind SpeedMPH,Gust SpeedMPH,PrecipitationIn,Events,Conditions,WindDirDegrees,DateUTC
12:53 AM,59.0,52.0,78,30.04,10.0,Calm,Calm,-,N/A,,Clear,0,2013-07-27 06:53:00
1:53 AM,59.0,52.0,78,30.09,10.0,NNE,3.5,-,N/A,,Clear,30,2013-07-27 07:53:00
2:53 AM,60.1,52.0,75,30.09,10.0,Variable,3.5,-,N/A,,Mostly Cloudy,0,2013-07-27 08:53:00
3:53 AM,60.1,52.0,75,30.08,10.0,South,5.8,-,N/A,,Overcast,170,2013-07-27 09:53:00
4:53 AM,59.0,52.0,78,30.07,10.0,South,4.6,-,N/A,,Mostly Cloudy,170,2013-07-27 10:53:00
5:53 AM,57.9,52.0,81,30.08,10.0,Calm,Calm,-,N/A,,Partly Cloudy,0,2013-07-27 11:53:00
7:53 AM,59.0,53.1,81,30.09,10.0,Calm,Calm,-,N/A,,Clear,0,2013-07-27 13:53:00
8:53 AM,64.0,52.0,65,30.07,10.0,Calm,Calm,-,N/A,,Partly Cloudy,0,2013-07-27 14:53:00
9:53 AM,66.9,53.1,61,30.04,10.0,Calm,Calm,-,N/A,,Clear,0,2013-07-27 15:53:00
10:53 AM,72.0,52.0,49,29.99,10.0,ENE,3.5,-,N/A,,Clear,70,2013-07-27 16:53:00
11:53 AM,73.9,53.1,48,29.98,10.0,Variable,3.5,-,N/A,,Clear,0,2013-07-27 17:53:00
12:53 PM,77.0,48.0,36,29.95,10.0,WNW,4.6,-,N/A,,Clear,290,2013-07-27 18:53:00
1:53 PM,78.1,51.1,39,29.91,10.0,SSE,8.1,-,N/A,,Scattered Clouds,150,2013-07-27 19:53:00
2:53 PM,72.0,54.0,53,29.91,10.0,Variable,4.6,-,0.00,Rain,Light Rain,0,2013-07-27 20:53:00
3:17 PM,68.0,51.8,56,30.25,2.0,West,12.7,25.3,0.08,Rain,Rain,260,2013-07-27 21:17:00
3:28 PM,60.8,55.4,82,30.26,1.2,Variable,5.8,-,0.17,Rain,Heavy Rain,0,2013-07-27 21:28:00
3:40 PM,62.6,53.6,72,30.24,3.0,ENE,11.5,-,0.27,Rain,Light Rain,70,2013-07-27 21:40:00
3:53 PM,66.9,55.9,68,29.91,10.0,East,10.4,-,0.27,,Overcast,80,2013-07-27 21:53:00
4:53 PM,77.0,50.0,39,29.84,10.0,SW,4.6,-,N/A,,Clear,220,2013-07-27 22:53:00
5:53 PM,75.0,53.1,46,29.84,10.0,West,6.9,-,N/A,,Partly Cloudy,260,2013-07-27 23:53:00
6:53 PM,71.1,53.1,53,29.86,10.0,Variable,5.8,24.2,0.00,Rain,Light Rain,0,2013-07-28 00:53:00
7:53 PM,69.1,55.0,61,29.88,10.0,Calm,Calm,-,0.00,,Overcast,0,2013-07-28 01:53:00
8:53 PM,66.0,55.0,68,29.88,10.0,Calm,Calm,-,N/A,,Mostly Cloudy,0,2013-07-28 02:53:00
9:53 PM,64.9,55.0,70,29.89,10.0,SW,3.5,-,N/A,,Partly Cloudy,230,2013-07-28 03:53:00
10:53 PM,64.9,55.0,70,29.87,10.0,Calm,Calm,-,N/A,,Scattered Clouds,0,2013-07-28 04:53:00
11:53 PM,60.1,55.9,86,29.88,10.0,Calm,Calm,-,N/A,,Clear,0,2013-07-28 05:53:00